Location: Lussas
(44.6119°N, 4.4726°E)
Time: 05:15:09
(UTC+00:00)

USA 238 DEB - Pass Details

Date: 26 November 2020
Orbit: 997 x 1215 km, 63.4° (Epoch: 11 January)

Event Time Altitude Azimuth Distance (km) Brightness Sun altitude
Exits shadow 03:18:30 56° 61° (ENE) 1,370 4.3 -37.7°
Drops below altitude 10° 03:25:24 10° 124° (SE) 3,129 6.6 -36.5°
Sets 03:28:15 0° 129° (SE) 4,106 7.3 -36.0°
